Regional Weather Roundup
Issued by NWS Goodland, KS

Home | Current Version | Previous Version | Graphics & Text | Print | Product List | Glossary On
Versions: 1 2 3 4 5 6 7 8 9 10 11 12 13 14 15 16 17 18 19 20 21 22 23 24 25 26 27 28 29 30 31 32 33 34 35 36 37 38 39 40 41 42 43 44 45 46 47 48 49 50
000
ASUS43 KGLD 280459
RWRGLD

GOODLAND FORECAST AREA HOURLY WEATHER ROUNDUP
NATIONAL WEATHER SERVICE GOODLAND KS
1000 PM MST FRI FEB 27 2015

...OFFICIAL OBSERVATIONS...

CITY           SKY/WX    TMP DP  RH WIND       PRES   REMARKS
GOODLAND KS    FLURRIES  11   7  84 S16       30.16S WCI  -6
HILL CITY KS   CLOUDY    16   6  65 S10       30.34F WCI   4
IMPERIAL NEB     N/A     11   6  81 SE9       30.17F
MCCOOK NEB     CLOUDY    18   6  59 S9        30.27F
AKRON CO       PTCLDY     8   4  83 S15       30.01F WCI  -9
BURLINGTON CO  CLOUDY    10   5  80 S16       30.10F WCI  -7
LIMON CO       CLOUDY     5   2  87 S16       29.98F FOG     WCI -14
$$

...UNOFFICIAL OBSERVATIONS...

CITY           SKY/WX    TMP DP  RH WIND       PRES   REMARKS
COLBY KS       CLOUDY    14  10  85 SE15      30.24S WCI  -1
GOVE KS          N/A     14  32 100 MISG        N/A
LENORA KS        N/A     14  32 100 S12         N/A  WCI   0
NORTON KS      CLOUDY    16   3  57 SE9       30.31S
SHARON SPRINGS   N/A     11   8  86 SE12G20     N/A  WCI  -3
KIT CARSON CO    N/A      9   6  85 MISG        N/A
YUMA CO          N/A     11   4  74 S12         N/A  WCI  -3
$$



USA.gov is the U.S. government's official web portal to all federal, state and local government web resources and services.